LA1KNX Weather Reports


time (UTC)temp
C
wind
direction
speed
KPH
gust
KPH
rain 1hr
cm
rain 24hr
cm
rain mn
cm
humidity
%
barometer
mb
20260503020003 6 354 12.9 0.0 0.00 0.00 0.00 61 1018.2
20260503014502 6 354 12.9 0.0 0.00 0.00 0.00 61 1018.2
20260503013003 6 354 12.9 0.0 0.00 0.00 0.00 61 1018.2
20260503010003 6 302 4.8 0.0 0.00 0.00 0.00 61 1018.2
20260503004503 6 317 4.8 0.0 0.00 0.00 0.00 61 1018.2
20260503003004 6 317 4.8 0.0 0.00 0.00 0.00 61 1018.2
20260503001501 6 317 4.8 0.0 0.00 0.00 0.00 61 1018.2
20260503000004 6 230 4.8 0.0 0.00 0.00 0.00 61 1018.2
20260502234501 6 230 4.8 0.0 0.00 0.00 0.00 61 1018.2
20260502233002 6 230 4.8 0.0 0.00 0.00 0.00 61 1018.2
20260502231502 6 230 4.8 0.0 0.00 0.00 0.00 61 1018.2
20260502230002 6 230 4.8 0.0 0.00 0.00 0.00 61 1018.2
20260502224503 6 230 4.8 0.0 0.00 0.00 0.00 61 1018.2
20260502223004 7 230 4.8 0.0 0.00 0.00 0.00 61 1018.2
20260502221502 7 230 4.8 0.0 0.00 0.00 0.00 61 1018.2
20260502220003 7 230 4.8 0.0 0.00 0.00 0.00 61 1018.2
20260502214502 7 205 4.8 0.0 0.00 0.00 0.00 61 1018.2
20260502213002 7 205 4.8 0.0 0.00 0.00 0.00 61 1018.2
20260502211502 7 205 4.8 0.0 0.00 0.00 0.00 61 1018.2
20260502210006 7 201 3.2 0.0 0.00 0.00 0.00 61 1018.2
20260502204502 8 201 3.2 0.0 0.00 0.00 0.00 61 1018.2
20260502203002 8 201 3.2 0.0 0.00 0.00 0.00 61 1018.2
20260502201502 8 201 3.2 0.0 0.00 0.00 0.00 61 1018.2
20260502200002 8 201 3.2 0.0 0.00 0.00 0.00 61 1018.2
20260502194502 9 201 3.2 0.0 0.00 0.00 0.00 61 1018.2
20260502193002 9 201 3.2 0.0 0.00 0.00 0.00 61 1018.2
20260502191502 9 191 1.6 0.0 0.00 0.00 0.00 61 1018.2
20260502190002 10 191 1.6 0.0 0.00 0.00 0.00 61 1018.2
20260502184506 10 328 4.8 0.0 0.00 0.00 0.00 61 1018.2
20260502183002 10 328 4.8 0.0 0.00 0.00 0.00 61 1018.2
20260502163002 12 173 6.4 0.0 0.00 0.00 0.00 61 1018.2
20260502161502 12 173 6.4 0.0 0.00 0.00 0.00 61 1018.2
20260502151502 13 252 6.4 0.0 0.00 0.00 0.00 61 1018.2
20260502123004 14 166 9.7 0.0 0.00 0.00 0.00 61 1018.2
20260502121503 13 166 9.7 0.0 0.00 0.00 0.00 61 1018.2
20260502114501 13 158 8.0 0.0 0.00 0.00 0.00 61 1018.2
20260502113002 13 158 8.0 0.0 0.00 0.00 0.00 61 1018.2
20260502111503 13 149 8.0 0.0 0.00 0.00 0.00 61 1018.2
20260502110006 13 149 8.0 0.0 0.00 0.00 0.00 61 1018.2
20260502104501 13 149 8.0 0.0 0.00 0.00 0.00 61 1018.2
20260502103005 13 149 8.0 0.0 0.00 0.00 0.00 61 1018.2
20260502101501 15 149 8.0 0.0 0.00 0.00 0.00 61 1018.2
20260502071502 16 157 4.8 0.0 0.00 0.00 0.00 61 1018.2
20260502070003 15 183 4.8 0.0 0.00 0.00 0.00 61 1018.2
20260502064502 9 183 4.8 0.0 0.00 0.00 0.00 61 1018.2
20260502063002 7 183 4.8 0.0 0.00 0.00 0.00 61 1018.2
20260502061502 6 183 4.8 0.0 0.00 0.00 0.00 61 1018.2
20260502053004 5 183 4.8 0.0 0.00 0.00 0.00 61 1018.2
20260502051503 5 183 4.8 0.0 0.00 0.00 0.00 61 1018.2
20260502050003 5 183 4.8 0.0 0.00 0.00 0.00 61 1018.2
20260502044502 5 182 6.4 0.0 0.00 0.00 0.00 61 1018.2
20260502043001 5 182 6.4 0.0 0.00 0.00 0.00 61 1018.2
20260502041502 5 194 6.4 0.0 0.00 0.00 0.00 61 1018.2
20260502040003 5 194 6.4 0.0 0.00 0.00 0.00 61 1018.2
20260502034503 5 194 6.4 0.0 0.00 0.00 0.00 61 1018.2
20260502033003 5 194 6.4 0.0 0.00 0.00 0.00 61 1018.2
20260502031502 5 194 6.4 0.0 0.00 0.00 0.00 61 1018.2
20260502030003 5 194 6.4 0.0 0.00 0.00 0.00 61 1018.2
20260502024502 6 194 6.4 0.0 0.00 0.00 0.00 61 1018.2
20260502023002 6 197 6.4 0.0 0.00 0.00 0.00 61 1018.2